Regional Weather Roundup
Issued by NWS Charleston, SC

Current Version | Previous Version | Graphics & Text | Print | Product List | Glossary On
Versions: 1 2 3 4 5 6 7 8 9 10 11 12 13 14 15 16 17 18 19 20 21 22 23 24 25 26 27 28 29 30 31 32 33 34 35 36 37 38 39 40 41 42 43 44 45 46 47 48 49 50
000 ASUS42 KCHS 291025 RWRCHS REGIONAL WEATHER ROUNDUP NATIONAL WEATHER SERVICE CHARLESTON SC 600 AM EDT FRI AUG 29 2014 NOTE: "FAIR" INDICATES FEW OR NO CLOUDS BELOW 12,000 FEET WITH NO SIGNIFICANT WEATHER AND/OR OBSTRUCTIONS TO VISIBILITY. NOT ALL STATIONS ARE QUALITY CONTROLLED BY THE NATIONAL WEATHER SERVICE. USE DATA WITH CAUTION...ESPECIALLY DEWPOINT OBSERVATIONS. SCZ027-030-031-034>040-042>050-291100- ...SOUTH CAROLINA... CITY SKY/WX TMP DP RH WIND PRES REMARKS N CHARLESTON PTCLDY 69 66 90 CALM 30.05R WATERFRONT PRK N/A 77 N/A N/A N3 N/A FORT JOHNSON NOT AVBL MOUNT PLEASANT LGT RAIN 68 66 94 CALM 30.05R JOHNS ISLAND SUNNY 72 70 94 CALM 30.05R PINOPOLIS N/A 75 72 88 SW2 29.98R MONCKS CORNER N/A 66 66 100 CALM 30.05R SUMMERVILLE FAIR 63 63 100 CALM 30.06R BEAUFORT MCAS PTCLDY 73 71 93 CALM 30.05R BEAUFORT ARPT FAIR 72 72 100 CALM 30.04R HILTON HEAD IS NOT AVBL GEORGETOWN NOT AVBL WALTERBORO FOG 63 N/A N/A CALM 30.06R VSB 1/2 ORANGEBURG CLEAR 65 63 93 CALM 30.05R BARNWELL FAIR 64 63 94 CALM 30.06R AIKEN FAIR 68 68 100 CALM 30.09R MANNING FAIR 68 N/A N/A CALM 30.06R KINGSTREE NOT AVBL COLUMBIA CLEAR 70 63 78 CALM 30.04S SUMTER CLEAR 70 67 92 SW2 30.04R FLORENCE CLEAR 70 66 87 CALM 30.05R MYRTLE BEACH CLEAR 72 66 83 CALM 30.05S N MYRTLE BEACH CLEAR 72 68 87 CALM 30.05R $$ GAZ063-065-086>088-099>101-113>116-118-119-134-136>141-150-291100- ...GEORGIA... CITY SKY/WX TMP DP RH WIND PRES REMARKS SAVANNAH ARPT PTCLDY 70 67 90 CALM 30.04R HUNTER AAF CLEAR 69 69 100 CALM 30.02R FORT STEWART CLEAR 67 65 94 CALM 30.03R STATESBORO NOT AVBL SYLVANIA SUNNY 64 64 100 CALM 30.06R CLAXTON NOT AVBL THOMSON CLEAR 67 67 100 CALM 30.10R AUGUSTA-BUSH FOG 61 60 97 CALM 30.05R VSB 3/4 AUGUSTA-DANIEL CLEAR 70 65 84 SE3 30.06R SWAINSBORO FAIR 68 68 100 CALM 30.06S VIDALIA N/A 70 68 94 CALM 30.06R ALMA CLEAR 65 64 97 CALM 30.04R FOG WAYCROSS CLEAR 69 69 99 CALM 30.04R FOG JESUP N/A 68 66 94 CALM 30.05R BRUNSWICK N/A 68 66 94 CALM 30.05R VSB 1/2 SAINT SIMONS CLEAR 72 71 97 CALM 30.03R $$ SCZ027-028-034-036>038-045-046-048>050-GAZ119-141-291100- ...LAKE AND SUPPLEMENTAL COASTAL OBSERVATIONS... STATION/POSITION TIME TEMP WIND PRES WAVE SWELL AIR SEA DIR/SP/G HT/PER HT/PER/DIR (UTC) (F) (DEG/KT/KT) (MB) (FT/S) (FT/S/D) UPR LAKE MARION NOT AVBL WINYAH BAY 1000 70 320/ 2 1017.0S LAKE MURRAY 1000 76 240/ 3/ 5 1016.9S ACE BASIN NERRS 1000 71 CALM 1017.0S FORT PULASKI 1000 76 310/ 5/ 6 1017.3R SAPELO ISLAND 1000 72 CALM 1017.0S $$ ANZ835-935-AMZ111-154-330-350-352-354-374-450-454-472-291100- ...C-MAN AND BUOY OBSERVATIONS... STATION/POSITION TIME TEMP WIND PRES WAVE SWELL AIR SEA DIR/SP/G HT/PER HT/PER/DIR (UTC) (F) (DEG/KT/KT) (MB) (FT/S) (FT/S/D) FOLLY BEACH CMAN 1000 78 310/ 3/ 3 1017.7R BUOY 41004 1000 82 83 160/ 8/ 8 1016.9R 4/ 9 3/ 9 BUOY 41008 1000 82 84 230/ 8/ 10 1016.7R 3/ 9 2/ 90/ 9 5E ST. MARYS GA 1000 84 N/A 3/ 9 FRYING PAN BUOY NOT AVBL BUOY 41025 1000 80 240/ 8/ 10 1017.2R 4/10 3/130/10 CAPE LOOKOUT NC 1000 79 240/ 7/ 11 1017.3R BUOY 41002 0949 80 82 40/ 2/ 4 1018.8R 4/ 8 3/110/ 8 BUOY 41010 1000 82 83 190/ 4/ 6 1017.0R 4/ 8 3/ 50/ 8 BUOY 41012 NOT AVBL ST AUGUSTINE FL 1000 78 250/ 1/ 2 1017.2R CAPERS NEARSHORE 0900 80 190/ 4/ 6 N/A FRIPP NEARSHORE NOT AVBL $$

USA.gov is the U.S. government's official web portal to all federal, state and local government web resources and services.